Weather in Ulaangom

Mongolia     49°59′16″N   92°04′21″E
temp.,
°C
wind,
m/s
gust,
m/s
humid.,
%
clouds,
%
prec.,
mm/h
press.,
hPa
HPBL,
m
13 may, thu
thu1323:00+12wnw4540100 0.1 1007378
02:00+8wnw8970100 1.3 1009376
05:00+6wnw91073100 2.8 1010380
08:00+7wnw71073100 5.1 1011632
11:00+10nw7941100 0.4 10111670
14:00+14wnw7930100 0.4 10102198
17:00+15w5628100 0.0 10091318
20:00+15wsw332885 0.0 1009434
14 may, fri
fri1423:00+11wsw4536100 0.0 101160
02:00+10wsw3236100 0.0 101122
05:00+9w2239100 0.0 101111
08:00+11w11355 0.0 101263
11:00+14ene212819 0.0 1011950
14:00+17ene22225 0.0 10102507
17:00+18e13186 0.0 10083102
20:00+17ne442312 0.0 1009667
15 may, sat
sat1523:00+12nw6105132 0.0 1014403
02:00+13nw71139100 0.1 10161134
05:00+11nnw7113997 0.0 1019844
08:00+10nnw483331 0.0 1022926
11:00+13nne333363 0.0 10221393
14:00+16ene333052 0.0 10201747
17:00+18ene24267 0.0 10182203
20:00+19ne332521 0.0 10181617
16 may, sun
sun1623:00+13nw22385 0.0 102143
02:00+12s11417 0.0 102010
05:00+10nne11455 0.0 102010
08:00+13sse11365 0.0 102069
11:00+17ene32305 0.0 10181076
14:00+20ene54245 0.0 10161739
17:00+21ene43235 0.0 10131062
20:00+19ne222632 0.0 1013407
17 may, mon
mon1723:00+16ssw22332 0.0 101213
02:00+15w223743 0.0 101216
05:00+13w223839 0.0 101112
08:00+16nw2333100 0.0 101287
11:00+18n664298 0.0 10141478
14:00+21n673034 0.0 10132487
17:00+22ne452787 0.0 10112618
20:00+20e543112 0.0 1012566